Regional Weather Roundup
Issued by NWS Upton, NY

Current Version | Previous Version | Graphics & Text | Print | Product List | Glossary Off
Versions: 1 2 3 4 5 6 7 8 9 10 11 12 13 14 15 16 17 18 19 20 21 22 23 24 25 26 27 28 29 30 31 32 33 34 35 36 37 38 39 40 41 42 43 44 45 46 47 48 49 50

000
ASUS41 KOKX 300208
RWROKX

REGIONAL WEATHER ROUNDUP
NATIONAL WEATHER SERVICE NEW YORK NY
1000 PM EDT WED MAR 29 2017

NOTE: "FAIR" INDICATES FEW OR NO CLOUDS BELOW 12,000 FEET WITH NO
SIGNIFICANT WEATHER AND/OR OBSTRUCTIONS TO VISIBILITY.

NYZ071-072-176-178-NJZ106-104-300300-
NEW YORK CITY METRO AREA

CITY           SKY/WX    TMP DP  RH WIND       PRES   REMARKS
Central Park   CLEAR     47  23  38 NE15G21   30.23R
Wall St Helipt CLEAR     48  26  42 NE6       30.22R
LaGuardia APRT CLEAR     48  24  39 N14G21    30.20R
Kennedy INTL   PTCLDY    47  24  40 N18G24    30.21R
Breezy Point     N/A     48 N/A N/A N14G20      N/A
Newark/Liberty PTCLDY    48  23  37 N18       30.21R
Teterboro      CLEAR     47  25  42 N10G22    30.21R
$$

NYZ177-179-078>081-300300-
LONG ISLAND NEW YORK

CITY           SKY/WX    TMP DP  RH WIND       PRES   REMARKS
Jones Beach      N/A     45 N/A N/A N16         N/A
Matinecock PT    N/A     45 N/A N/A NE22G28     N/A
Farmingdale    CLEAR     45  23  42 N13       30.20R
MacArthur/ISP  PTCLDY    44  27  51 N8        30.19R
Shirley        CLEAR     44  26  49 N12       30.20R
Westhampton    CLEAR     43  25  49 N10       30.20R
East Hampton   CLOUDY    42  26  55 N10G16    30.18R
Montauk          N/A     43  27  53 N10       30.19R
$$

NYZ052-065-067-300300-
HUDSON VALLEY

CITY           SKY/WX    TMP DP  RH WIND       PRES   REMARKS
White Plains   CLEAR     42  20  41 N14G20    30.20R
Newburgh       CLEAR     41  25  52 NE9G23    30.23R
Montgomery     PTCLDY    39  26  59 N7        30.22R WCI  34
Poughkeepsie   CLEAR     40  21  46 N10       30.23R WCI  33
Albany         PTCLDY    37  20  50 NW8       30.25S WCI  31
$$

NJZ001-105-106-008-010-013-015-019>022-104-300300-
NEW JERSEY

CITY           SKY/WX    TMP DP  RH WIND       PRES   REMARKS
Newark/Liberty PTCLDY    48  23  37 N18       30.21R
Teterboro      CLEAR     47  25  42 N10G22    30.21R
Caldwell       CLEAR     45  24  43 VRB6      30.22R HAZE
Somerville     CLEAR     47  24  40 N9G20     30.21R
Linden           N/A     47  22  36 N13G21    30.21R
Sussex         PTCLDY    42  23  46 N7G18     30.23R
Andover          N/A     42  24  49 N8        30.22R
Trenton        CLEAR     46  27  47 N8        30.20R
Millville      CLEAR     49  31  49 N7        30.19R
Atlantic City  CLEAR     45  34  65 N7        30.18R
Wrightstown    CLEAR     47  27  45 N13       30.17R
Toms River     CLEAR     46  28  49 N8        30.20R
Belmar         CLEAR     48  25  40 NW10      30.20R
$$

PAZ047>061-062-071-300300-
EASTERN PENNSYLVANIA

CITY           SKY/WX    TMP DP  RH WIND       PRES   REMARKS
Philadelphia   CLEAR     51  26  37 N14       30.22R
Allentown      CLEAR     44  25  47 N9        30.23R
Scranton       CLEAR     40  25  55 N12G22    30.24R WCI  33
$$

CTZ002-004>006-009-010-012-RIZ004-006-007-MAZ004-011-015-300300-
SOUTHERN NEW ENGLAND
 IN CT

CITY           SKY/WX    TMP DP  RH WIND       PRES   REMARKS
Bradley INTL   CLOUDY    41  23  48 N9        30.21R
Hartford       CLOUDY    42  23  46 N9G20     30.21R
Danbury        MOCLDY    41  23  48 N12G17    30.21R
Wtrbury/Oxford PTCLDY    39  19  45 N18G24    30.21R WCI  30
Bridgeport     CLEAR     46  23  40 N13       30.20R
Meriden        MOCLDY    44  23  43 N13       30.20R
New Haven      MOCLDY    44  24  45 N17G29    30.19R
Chester        NOT AVBL
Groton         CLOUDY    43  22  43 N15G31    30.18R
Wilimantic     CLOUDY    42  20  41 N16G22    30.19S

 IN RI

CITY           SKY/WX    TMP DP  RH WIND       PRES   REMARKS
Providence     PTCLDY    41  20  43 N12       30.16S
Block Island   MOCLDY    40  25  55 N12G20    30.17  WCI  33
Westerly       PTCLDY    42  22  44 N14G20    30.18R
 IN MA

CITY           SKY/WX    TMP DP  RH WIND       PRES   REMARKS
Boston         PTCLDY    40  24  53 NW15      30.16R WCI  32
Worcester      CLEAR     34  19  54 NW13      30.14F WCI  25
Westfield      CLOUDY    39  24  55 N8        30.21R WCI  33
Provincetown   PTCLDY    40  30  67 NW17G29   30.12R WCI  31
Nantucket      CLOUDY    40  28  62 NW15G24   30.10R WCI  32
$$

ANZ330-335-338-340-345-350-353-355-300300-
COASTAL MARINE OBSERVATIONS


STATION/POSITION TIME  SKY/WX   TEMP    WIND        PRES    VSBY  WAVE
                                AIR SEA DIR/SP/G                  HT/PER
                 (UTC)          (F)     (DEG/KT/KT) (MB)    (MI)  (FT/S)
NY HARB ENTRANCE 0050            47 42   10/  6/  6 1021.5          3/10
20 S FIRE ISLAND 0050            46 43   10/ 14/ 16 1020.7          3/10
GREAT SOUTH BAY  NOT AVBL
23 SSW MONTAUK P 0050            44 43              1020.9          3/ 9
15 E BARNEGAT LI 0130               45                N/A           3/10
HUDSON CANYON    0050            45 45  300/  8/ 10 1020.7          4/10
KINGS POINT      0130            45 42              1022.7
EXECUTION ROCKS  NOT AVBL
CENTRAL LI SOUND 0130            43      20/ 14/ 17   N/A           1/ 3
EASTERN LI SOUND NOT AVBL
ROBBINS REEF     0130            49     330/ 14/ 19 1022.8
$$


>>>>>>>>>>>>>>>>>>>>>>>>>>>> KEY <<<<<<<<<<<<<<<<<<<<<<<<<<<
>                                                          <
>     SKY/WX - Sky Condition/Present Weather               <
>     TMP    - Temperature in Fahrenheit                   <
>     DP     - Dew Point in Fahrenheit                     <
>     RH     - Relative Humidity in Percent                <
>     WIND   - Direction (from) and Speed in MPH           <
>     PRES   - Mean Sea Level Pressure (inches of Hg)      <
>     WCI    - Wind Chill Index                            <
>     VSB    - VISIBILITY IN MILES                         <
>     HX     - HEAT INDEX                                  <
>     TC     - TEMPERATURE IN CELSIUS                      <
>     VRB    - VARIABLE WIND DIRECTION                     <
>                                                          <
>>>>>>>>>>>>>>>>>>>>>>>>>>>> KEY <<<<<<<<<<<<<<<<<<<<<<<<<<<



USA.gov is the U.S. government's official web portal to all federal, state and local government web resources and services.